Location: Poughquag
(41.6090°N, 73.6820°W)
Time: 11:41:42
(UTC-04:00)

A-11 Canister half - Pass Details

Date: 31 May 2020
Orbit: 1527 x 1682 km, 47.3° (Epoch: 06 July)

Event Time Altitude Azimuth Distance (km) Brightness Sun altitude
Rises 10:32:07 0° 272° (W) 4,681 11.2 54.7°
Reaches altitude 10° 10:35:12 10° 276° (W) 3,706 10.8 55.2°
Maximum altitude 10:44:29 63° 357° (N) 1,717 10.0 56.8°
Drops below altitude 10° 10:54:02 10° 78° (ENE) 3,807 11.6 58.4°
Sets 10:57:15 0° 82° (E) 4,814 11.9 58.9°
